Location: Saint-Restitut
(44.3351°N, 4.7915°E)
Time: 12:36:26
(UTC+00:00)

Meteor 1-11 - Pass Details

Date: 03 February 2023
Orbit: 839 x 888 km, 81.2° (Epoch: 19 March)

Event Time Altitude Azimuth Distance (km) Brightness Sun altitude
Rises 17:44:52 0° 179° (S) 3,480 7.6 -9.7°
Reaches altitude 10° 17:47:19 10° 177° (S) 2,545 6.8 -10.1°
Maximum altitude 17:53:03 66° 96° (E) 968 4.3 -11.1°
Drops below altitude 10° 17:58:48 10° 16° (NNE) 2,548 6.4 -12.1°
Sets 18:01:15 0° 14° (NNE) 3,485 7.2 -12.6°
